This demonstration page uses our WeatherBlox Daily Observations layout. Learn more.

38.88101, -77.10428

Hourly Observations for March 12, 2017

Temp ( °F °C ) Dew Point ( °F °C ) Humidity (%) Winds ( mph kmh ) Pressure ( in mb ) Visibility ( mi km ) Precip ( " mm )
12:52 am 00:52 Cloudy 30 -1.1 9 -12.8 41 41 NNW 13 20 30.36 1028 10 16.09344 0 0
1:52 am 01:52 Cloudy 29 -1.7 8 -13.3 41 41 NNW 17 28 30.36 1028 10 16.09344 0 0
3:52 am 03:52 Cloudy 29 -1.7 8 -13.3 41 41 NNW 13 20 30.36 1028 10 16.09344 0 0
4:52 am 04:52 Cloudy 28 -2.2 8 -13.3 43 43 NNW 13 20 30.36 1028 10 16.09344 0 0
5:52 am 05:52 Cloudy 28 -2.2 7 -13.9 41 41 NNW 9 15 30.36 1028 10 16.09344 0 0
6:52 am 06:52 Mostly Cloudy 27 -2.8 7 -13.9 43 43 NW 9 15 30.36 1028 10 16.09344 0 0
7:52 am 07:52 Mostly Cloudy 27 -2.8 6 -14.4 41 41 WNW 8 13 30.39 1029 10 16.09344 0 0
8:52 am 08:52 Cloudy 28 -2.2 7 -13.9 41 41 NNW 8 13 30.42 1030 10 16.09344 0 0
9:52 am 09:52 Mostly Cloudy 30 -1.1 7 -13.9 38 38 WNW 9 15 30.42 1030 10 16.09344 0 0
10:52 am 10:52 Mostly Cloudy 32 0 8 -13.3 36 36 N 6 9 30.42 1030 10 16.09344 0 0
11:52 am 11:52 Mostly Cloudy 35 1.7 9 -12.8 34 34 NW 13 20 30.42 1030 10 16.09344 0 0
12:52 pm 12:52 Partly Cloudy 36 2.2 9 -12.8 32 32 N 6 9 30.39 1029 10 16.09344 0 0
1:52 pm 13:52 Partly Cloudy 39 3.9 10 -12.2 30 30 NW 14 22 30.36 1028 10 16.09344 0 0
2:52 pm 14:52 Mostly Sunny 41 5 12 -11.1 30 30 WNW 13 20 30.33 1027 10 16.09344 0 0
3:52 pm 15:52 Mostly Sunny 41 5 10 -12.2 28 28 NNW 10 17 30.33 1027 10 16.09344 0 0
4:52 pm 16:52 Mostly Sunny 42 5.6 11 -11.7 28 28 N 14 22 30.3 1026 10 16.09344 0 0
5:52 pm 17:52 Mostly Sunny 41 5 11 -11.7 29 29 NNW 15 24 30.3 1026 10 16.09344 0 0
6:52 pm 18:52 Mostly Sunny 39 3.9 11 -11.7 31 31 N 14 22 30.33 1027 10 16.09344 0 0
7:52 pm 19:52 Mostly Clear 37 2.8 11 -11.7 34 34 N 13 20 30.36 1028 10 16.09344 0 0
8:52 pm 20:52 Mostly Clear 36 2.2 11 -11.7 35 35 N 15 24 30.39 1029 10 16.09344 0 0
9:52 pm 21:52 Mostly Clear 35 1.7 12 -11.1 38 38 N 10 17 30.42 1030 10 16.09344 0 0
10:52 pm 22:52 Mostly Cloudy 33 0.6 10 -12.2 38 38 NNE 9 15 30.42 1030 10 16.09344 0 0
11:52 pm 23:52 Mostly Cloudy 32 0 12 -11.1 43 43 NNE 9 15 30.45 1031 10 16.09344 0 0

Powered by AerisWeather